EW8262 Weather Reports


Display with metric or nautical units.
time (UTC)temp
F
wind
direction
speed
MPH
gust
MPH
rain 1hr
in
rain 24hr
in
rain mn
in
humidity
%
barometer
mb
20260901163037 79 293 1.0 3.0 0.00 0.00 0.00 67 1014.0
20260901162017 79 293 1.0 3.0 0.00 0.00 0.00 68 1014.1
20260901161017 79 0.0 3.0 0.00 0.00 0.00 67 1014.0
20260901160017 79 0.0 0.0 0.00 0.00 0.00 69 1014.0
20260901155017 78 0.0 0.0 0.00 0.00 0.00 70 1014.1
20260901154017 78 0.0 2.0 0.00 0.00 0.00 73 1014.0
20260901153037 77 0.0 2.0 0.00 0.00 0.00 72 1014.0
20260901152017 76 0.0 3.0 0.00 0.00 0.00 73 1014.1
20260901151017 76 0.0 0.0 0.00 0.00 0.00 74 1014.1
20260901150017 75 0.0 0.0 0.00 0.00 0.00 78 1014.1
20260901145017 74 293 1.0 4.0 0.00 0.00 0.00 80 1014.1
20260901144017 72 293 1.0 4.0 0.00 0.00 0.00 85 1014.1
20260901143017 71 0.0 3.0 0.00 0.00 0.00 93 1014.1
20260901142017 70 0.0 2.0 0.00 0.00 0.00 96 1014.0
20260901141018 68 0.0 4.0 0.00 0.00 0.00 97 1014.0
20260901140017 68 0.0 3.0 0.00 0.00 0.00 97 1014.2
20260901135017 67 0.0 2.0 0.00 0.00 0.00 97 1014.2
20260901134017 67 0.0 1.0 0.00 0.00 0.00 97 1014.0
20260901133037 66 0.0 1.0 0.00 0.00 0.00 97 1014.0
20260901132017 65 0.0 1.0 0.00 0.00 0.00 97 1013.8
20260901131017 64 0.0 0.0 0.00 0.00 0.00 97 1013.9
20260901130037 63 0.0 0.0 0.00 0.00 0.00 97 1013.8
20260901125017 62 0.0 0.0 0.00 0.00 0.00 97 1013.8
20260901124017 61 0.0 0.0 0.00 0.00 0.00 96 1013.8
20260901123017 60 0.0 0.0 0.00 0.00 0.00 96 1013.7
20260901122017 59 0.0 0.0 0.00 0.00 0.00 96 1013.6
20260901121017 59 0.0 0.0 0.00 0.00 0.00 96 1013.7
20260901120057 59 0.0 0.0 0.00 0.00 0.00 96 1013.4
20260901115037 59 0.0 0.0 0.00 0.00 0.00 96 1013.4
20260901114017 60 0.0 0.0 0.00 0.00 0.00 95 1013.4
20260901113017 60 0.0 0.0 0.00 0.00 0.00 95 1013.4
20260901112017 60 0.0 0.0 0.00 0.00 0.00 95 1013.3
20260901111037 60 0.0 0.0 0.00 0.00 0.00 95 1013.1
20260901110017 60 0.0 0.0 0.00 0.00 0.00 96 1013.1
20260901105016 61 0.0 0.0 0.00 0.00 0.00 96 1013.1
20260901104017 61 0.0 0.0 0.00 0.00 0.00 95 1013.1
20260901103017 61 0.0 0.0 0.00 0.00 0.00 95 1013.1
20260901102017 61 0.0 0.0 0.00 0.00 0.00 95 1012.9
20260901101016 61 0.0 0.0 0.00 0.00 0.00 95 1012.6
20260901100017 61 0.0 0.0 0.00 0.00 0.00 95 1012.5
20260901095017 61 0.0 0.0 0.00 0.00 0.00 95 1012.4
20260901094017 61 0.0 0.0 0.00 0.00 0.00 95 1012.4
20260901093016 61 0.0 1.0 0.00 0.00 0.00 95 1012.4
20260901092017 61 0.0 0.0 0.00 0.00 0.00 95 1012.4
20260901091037 61 0.0 0.0 0.00 0.00 0.00 95 1012.4
20260901090017 61 0.0 0.0 0.00 0.00 0.00 94 1012.5
20260901085016 61 0.0 0.0 0.00 0.00 0.00 94 1012.5
20260901084017 61 0.0 0.0 0.00 0.00 0.00 94 1012.4
20260901083017 61 0.0 0.0 0.00 0.00 0.00 94 1012.4
20260901082017 61 0.0 0.0 0.00 0.00 0.00 94 1012.4
20260901081017 61 0.0 0.0 0.00 0.00 0.00 94 1012.4
20260901080016 62 0.0 0.0 0.00 0.00 0.00 94 1012.5
20260901075016 62 0.0 0.0 0.00 0.00 0.00 94 1012.7
20260901074016 62 0.0 0.0 0.00 0.00 0.00 94 1012.7
20260901073016 62 0.0 0.0 0.00 0.00 0.00 94 1012.9
20260901072036 62 0.0 0.0 0.00 0.00 0.00 94 1012.9
20260901071016 62 0.0 0.0 0.00 0.00 0.00 93 1012.8
20260901070016 63 0.0 0.0 0.00 0.00 0.00 94 1012.9
20260901065016 63 0.0 0.0 0.00 0.00 0.00 94 1013.0
20260901064016 63 0.0 0.0 0.00 0.00 0.00 93 1012.8
20260901063016 63 0.0 0.0 0.00 0.00 0.00 93 1012.8
20260901062016 63 0.0 0.0 0.00 0.00 0.00 93 1012.7
20260901061016 64 0.0 0.0 0.00 0.00 0.00 93 1012.6
20260901060016 64 0.0 0.0 0.00 0.00 0.00 93 1012.6
20260901055016 64 0.0 0.0 0.00 0.00 0.00 93 1012.6
20260901054016 64 0.0 0.0 0.00 0.00 0.00 93 1012.5
20260901053016 65 0.0 0.0 0.00 0.00 0.00 93 1012.5
20260901052016 65 0.0 0.0 0.00 0.00 0.00 92 1012.4
20260901051016 65 0.0 0.0 0.00 0.00 0.00 93 1012.4
20260901050017 65 0.0 0.0 0.00 0.00 0.00 92 1012.1
20260901045016 65 0.0 0.0 0.00 0.00 0.00 92 1012.1
20260901044016 65 0.0 0.0 0.00 0.00 0.00 91 1012.0
20260901043036 66 0.0 0.0 0.00 0.00 0.00 91 1011.9
20260901042016 66 0.0 0.0 0.00 0.00 0.00 90 1011.9
20260901041016 66 0.0 0.0 0.00 0.00 0.00 90 1012.0
20260901040016 66 0.0 0.0 0.00 0.00 0.00 90 1012.0
20260901035016 67 0.0 0.0 0.00 0.00 0.00 89 1012.1
20260901034016 67 0.0 0.0 0.00 0.00 0.00 90 1012.0
20260901033016 67 0.0 0.0 0.00 0.00 0.00 89 1011.9
20260901032016 67 0.0 0.0 0.00 0.00 0.00 89 1011.9
20260901031016 68 0.0 0.0 0.00 0.00 0.00 88 1011.9
20260901030016 68 0.0 0.0 0.00 0.00 0.00 87 1011.8
20260901025016 68 0.0 0.0 0.00 0.00 0.00 86 1011.8
20260901024016 69 0.0 0.0 0.00 0.00 0.00 86 1011.8
20260901023037 70 0.0 0.0 0.00 0.00 0.00 84 1011.6
20260901022017 70 0.0 0.0 0.00 0.00 0.00 84 1011.5
20260901021036 70 0.0 0.0 0.00 0.00 0.00 83 1011.5
20260901020036 71 0.0 0.0 0.00 0.00 0.00 82 1011.5
20260901015016 72 0.0 0.0 0.00 0.00 0.00 81 1011.3
20260901014016 73 0.0 0.0 0.00 0.00 0.00 81 1011.2
20260901013016 74 0.0 0.0 0.00 0.00 0.00 81 1011.2
20260901012016 75 0.0 0.0 0.00 0.00 0.00 80 1011.1
20260901011036 76 0.0 0.0 0.00 0.00 0.00 77 1011.0
20260901010036 77 0.0 0.0 0.00 0.00 0.00 76 1011.0
20260901005036 79 0.0 0.0 0.00 0.00 0.00 73 1011.0
20260901004016 80 0.0 0.0 0.00 0.00 0.00 72 1011.0
20260901003016 81 0.0 0.0 0.00 0.00 0.00 71 1011.1
20260901002015 81 0.0 0.0 0.00 0.00 0.00 72 1011.0
20260901001037 83 0.0 0.0 0.00 0.00 0.00 68 1011.1
20260901000015 83 0.0 0.0 0.00 0.00 0.00 66 1011.0
20260831235016 84 0.0 0.0 0.00 0.00 0.00 65 1010.9
20260831234015 84 0.0 0.0 0.00 0.00 0.00 64 1011.0
20260831233016 85 0.0 0.0 0.00 0.00 0.00 63 1011.1
20260831232036 85 0.0 0.0 0.00 0.00 0.00 61 1011.1
20260831231015 86 0.0 0.0 0.00 0.00 0.00 59 1011.0
20260831230016 86 0.0 1.0 0.00 0.00 0.00 54 1010.9
20260831225016 87 0.0 3.0 0.00 0.00 0.00 52 1010.9
20260831224016 87 0.0 2.0 0.00 0.00 0.00 50 1010.8
20260831223036 87 0.0 2.0 0.00 0.00 0.00 49 1010.7
20260831222015 87 315 1.0 5.0 0.00 0.00 0.00 50 1010.6
20260831221015 88 315 1.0 4.0 0.00 0.00 0.00 52 1010.8
20260831220015 88 0.0 1.0 0.00 0.00 0.00 53 1010.8
20260831215016 89 0.0 1.0 0.00 0.00 0.00 51 1010.7
20260831214015 89 0.0 3.0 0.00 0.00 0.00 50 1010.6
20260831213015 89 315 1.0 4.0 0.00 0.00 0.00 49 1010.5
20260831212015 89 315 1.0 4.0 0.00 0.00 0.00 49 1010.6
20260831211015 89 293 1.0 3.0 0.00 0.00 0.00 50 1010.7
20260831210015 89 315 1.0 4.0 0.00 0.00 0.00 49 1010.7
20260831205015 90 338 2.0 6.0 0.00 0.00 0.00 51 1010.7
20260831204015 89 0.0 2.0 0.00 0.00 0.00 54 1010.6
20260831203015 89 293 1.0 3.0 0.00 0.00 0.00 55 1010.6
20260831202015 89 90 1.0 7.0 0.00 0.00 0.00 53 1010.5
20260831201015 89 315 1.0 5.0 0.00 0.00 0.00 54 1010.4
20260831200015 88 315 1.0 4.0 0.00 0.00 0.00 55 1010.4
20260831195015 88 315 2.0 8.0 0.00 0.00 0.00 58 1010.3
20260831194035 87 315 1.0 3.0 0.00 0.00 0.00 64 1010.4
20260831193036 87 270 2.0 4.0 0.00 0.00 0.00 67 1010.5
20260831192035 87 293 1.0 3.0 0.00 0.00 0.00 69 1010.5
20260831191015 86 293 1.0 4.0 0.00 0.00 0.00 69 1010.4
20260831190035 85 293 1.0 3.0 0.00 0.00 0.00 69 1010.4
20260831185035 85 293 1.0 3.0 0.00 0.00 0.00 71 1010.4
20260831184015 84 315 2.0 5.0 0.00 0.00 0.00 71 1010.4
20260831183015 83 68 1.0 4.0 0.00 0.00 0.00 75 1010.4
20260831182015 83 0.0 2.0 0.00 0.00 0.00 76 1010.4
20260831181015 82 315 1.0 4.0 0.00 0.00 0.00 79 1010.5
20260831180015 81 293 2.0 4.0 0.00 0.00 0.00 78 1010.6
20260831175015 81 293 1.0 3.0 0.00 0.00 0.00 80 1010.6
20260831174035 80 270 1.0 4.0 0.00 0.00 0.00 81 1010.7
20260831173017 80 270 1.0 3.0 0.00 0.00 0.00 83 1010.7
20260831172017 79 0.0 1.0 0.00 0.00 0.00 84 1010.7
20260831171037 78 0.0 0.0 0.00 0.00 0.00 87 1010.8
20260831170017 78 0.0 3.0 0.00 0.00 0.00 88 1010.9
20260831165017 77 0.0 3.0 0.00 0.00 0.00 88 1010.8
20260831164017 77 0.0 1.0 0.00 0.00 0.00 88 1010.8